Date,TemperatureHighF,TemperatureAvgF,TemperatureLowF,DewpointHighF,DewpointAvgF,DewpointLowF,HumidityHigh,HumidityAvg,HumidityLow,PressureMaxIn,PressureMinIn,WindSpeedMaxMPH,WindSpeedAvgMPH,GustSpeedMaxMPH,PrecipitationSumIn
2013-1-1,43.7,-2.8,-22.6,40.7,-19.9,-38.3,89,43,42,29.68,29.09,6,0,6,0.04
2013-1-2,19.4,12.3,1.2,3.7,-1.4,-9.4,61,54,42,29.09,28.97,6,0,6,0.00
2013-1-3,18.3,12.9,3.5,10.9,0.5,-10.9,73,57,48,29.23,29.06,7,1,9,0.00
2013-1-4,29.6,14.9,3.0,9.4,-1.1,-11.4,76,49,36,29.18,29.03,7,4,7,0.00
2013-1-5,29.5,12.4,-0.1,11.7,-2.1,-14.3,73,52,41,29.15,28.88,7,7,7,0.00
2013-1-6,23.7,14.3,-0.4,9.7,-0.0,-16.2,66,53,41,29.23,28.97,7,7,7,0.00
2013-1-7,35.9,22.3,9.3,14.6,7.4,-7.3,73,53,39,29.15,28.94,7,7,7,0.00
2013-1-8,36.8,22.4,3.4,22.2,10.0,-4.8,79,60,41,29.03,28.82,7,7,7,0.00
2013-1-9,36.8,27.5,13.4,19.0,10.8,2.0,66,50,33,29.38,28.91,7,7,7,0.00
2013-1-10,40.1,28.9,13.3,29.8,14.4,2.7,89,58,29,29.41,28.82,7,7,7,0.00
2013-1-11,40.8,35.6,32.7,39.5,33.8,29.8,95,93,89,28.82,28.47,7,7,7,0.00
2013-1-12,40.8,21.0,6.8,39.5,8.1,-9.6,95,58,43,29.09,28.47,14,5,17,0.00
2013-1-13,10.7,5.4,0.5,-6.0,-10.9,-15.4,46,46,46,29.23,29.00,9,1,9,0.00
2013-1-14,14.2,3.0,-5.8,-3.3,-13.2,-21.2,47,46,44,29.38,29.23,8,0,9,0.00
2013-1-15,29.5,14.2,-5.1,7.1,-3.8,-20.6,69,44,33,29.35,28.94,8,1,10,0.00
2013-1-16,35.0,24.7,11.6,20.3,7.7,-10.1,65,49,33,29.18,28.70,10,2,10,0.00
2013-1-17,18.3,9.4,0.3,-4.1,-10.5,-16.0,45,39,33,29.41,29.21,10,2,10,0.00
2013-1-18,43.9,25.0,5.7,22.8,9.1,-11.0,67,51,37,29.35,28.76,9,2,9,0.00
2013-1-19,41.7,24.0,1.7,26.5,8.6,-19.0,77,53,33,29.15,28.67,18,4,23,0.00
2013-1-20,8.0,1.4,-3.7,-13.4,-19.3,-23.9,36,36,36,29.35,29.15,12,3,12,0.00
2013-1-21,-0.8,-8.9,-13.0,-21.3,-28.6,-32.3,36,36,36,29.29,29.21,10,3,13,0.00
2013-1-22,-0.4,-9.5,-18.4,-21.0,-29.2,-37.2,36,36,36,29.38,29.26,8,1,9,0.00
2013-1-23,16.0,2.9,-8.3,-2.6,-16.4,-27.8,49,39,36,29.56,29.12,14,2,14,0.00
2013-1-24,7.7,-1.2,-11.6,-11.1,-19.2,-28.7,41,41,41,29.68,29.26,7,1,9,0.00
2013-1-25,19.9,11.1,1.2,2.9,-6.5,-15.2,62,44,39,29.26,28.94,10,2,11,0.00
2013-1-26,20.8,7.4,-12.7,-0.2,-11.7,-28.0,45,41,34,29.38,29.21,7,2,7,0.00
2013-1-27,29.1,25.2,19.6,25.2,12.2,-0.2,85,60,38,29.21,28.85,6,1,7,0.00
2013-1-28,33.8,30.1,28.2,29.0,25.8,23.3,92,84,71,28.94,28.70,0,0,0,0.00
2013-1-29,33.4,31.8,27.8,31.4,26.6,15.0,93,82,58,28.70,28.53,0,0,0,0.00
2013-1-30,27.8,17.9,8.8,15.0,4.4,-5.3,69,55,47,28.70,28.56,0,0,0,0.75
2013-1-31,8.8,2.1,-7.1,-5.3,-11.5,-20.1,52,52,52,29.21,28.70,0,0,0,0.00
2013-2-1,4.3,-5.9,-16.1,-9.5,-18.9,-28.5,52,52,52,29.29,29.09,0,0,0,0.00
2013-2-2,36.7,3.3,-1.7,26.8,-14.0,-22.6,67,44,35,29.18,29.00,2,0,2,0.00
2013-2-3,16.1,8.1,3.9,-6.6,-13.6,-17.6,40,35,35,29.06,28.97,0,0,0,0.00
2013-2-4,20.1,6.2,-4.7,-4.5,-15.6,-24.9,40,35,32,29.06,28.88,0,0,0,0.00
2013-2-5,26.9,13.7,-8.0,14.9,-2.1,-23.6,69,50,34,29.12,28.70,0,0,0,0.00
2013-2-6,23.9,8.9,-14.1,13.9,-4.2,-29.3,66,54,45,29.15,29.00,0,0,0,0.00
2013-2-7,25.0,23.6,22.3,20.2,15.3,11.9,83,70,63,29.23,29.03,0,0,0,0.00
2013-2-8,28.6,14.0,-1.5,12.6,-4.1,-20.4,66,44,32,29.41,29.23,0,0,0,0.00
2013-2-9,29.3,21.2,-2.0,15.7,8.4,-20.9,70,58,39,29.32,29.03,0,0,0,0.00
2013-2-10,34.0,29.3,24.4,31.9,23.8,13.8,92,80,63,29.03,28.29,0,0,0,0.00
2013-2-11,32.9,25.7,18.3,30.8,17.2,4.4,93,71,53,29.03,28.32,0,0,0,0.00
2013-2-12,36.5,22.1,11.5,13.3,7.0,-0.1,65,53,34,29.06,28.82,0,0,0,0.47
2013-2-13,38.3,26.3,10.9,25.2,13.3,2.8,82,59,37,28.82,28.61,0,0,0,0.00
2013-2-14,35.0,25.7,5.5,25.8,13.1,-11.7,86,61,38,29.15,28.59,0,0,0,0.04
2013-2-15,19.0,6.8,-3.8,-3.7,-12.4,-20.3,44,40,34,29.26,29.15,0,0,0,0.00
2013-2-16,19.9,2.5,-15.9,-4.6,-18.5,-35.4,41,36,32,29.23,29.15,0,0,0,0.00
2013-2-17,28.7,8.0,-19.5,4.8,-13.0,-38.7,49,37,32,29.18,28.79,0,0,0,0.00
2013-2-18,38.8,25.4,14.2,23.0,11.3,2.4,73,55,40,28.79,28.56,0,0,0,0.04
2013-2-19,14.0,5.6,-1.3,2.7,-6.3,-12.9,61,57,57,29.29,28.70,0,0,0,0.00
2013-2-20,23.3,5.1,-6.9,-0.5,-11.8,-18.3,57,46,32,29.41,29.29,0,0,0,0.00
2013-2-21,21.5,8.1,-13.2,3.2,-11.6,-31.5,51,39,34,29.47,29.12,0,0,0,0.00
2013-2-22,31.1,22.8,18.3,17.5,14.0,3.2,78,69,51,29.12,28.85,0,0,0,0.00
2013-2-23,32.2,23.6,19.2,15.6,12.9,9.9,78,64,44,28.97,28.85,0,0,0,0.00
2013-2-24,41.5,24.1,10.7,15.9,8.6,-1.5,71,53,30,29.12,28.97,0,0,0,0.20
2013-2-25,35.4,26.4,10.6,17.6,13.1,-1.6,68,57,43,29.15,29.06,0,0,0,0.00
2013-2-26,35.6,29.3,22.8,19.2,14.9,12.4,74,56,40,29.09,28.88,0,0,0,0.00
2013-2-27,30.7,30.0,29.3,17.2,15.4,12.6,59,54,47,28.97,28.88,0,0,0,0.00
2013-2-28,31.6,27.2,20.8,14.9,9.5,2.4,56,47,40,29.23,28.97,0,0,0,0.00
2013-3-1,32.0,22.3,12.9,4.8,1.7,-2.9,51,41,31,29.32,29.21,0,0,0,0.00
2013-3-2,32.3,13.7,-7.1,4.8,-5.8,-20.4,62,42,30,29.35,29.23,0,0,0,0.00
2013-3-8,37.6,32.0,29.8,16.1,13.7,10.4,53,46,39,29.26,29.18,0,0,0,0.00
2013-3-9,34.7,32.4,29.5,32.0,26.2,12.9,91,79,47,29.18,28.76,0,0,0,0.00
2013-3-10,35.4,32.3,28.0,31.6,26.4,20.4,93,80,58,28.94,28.76,0,0,0,0.00
2013-3-11,33.4,27.0,23.7,26.4,19.6,13.8,88,74,57,28.85,28.70,0,0,0,0.00
2013-3-12,31.6,23.4,17.2,15.3,8.4,0.8,74,54,34,29.15,28.82,0,0,0,0.00
2013-3-13,34.9,19.4,7.1,5.8,-1.2,-10.3,58,41,27,29.35,29.15,0,0,0,0.00
2013-3-14,41.3,23.5,8.4,17.7,7.2,-10.0,65,50,38,29.29,29.03,0,0,0,0.00
2013-3-15,35.9,28.2,20.6,23.4,18.8,11.1,82,68,49,29.06,28.88,0,0,0,0.00
2013-3-16,31.1,21.3,10.9,20.2,7.4,-5.8,82,58,32,29.21,28.88,0,0,0,0.00
2013-3-17,30.4,15.1,-3.8,3.4,-5.4,-19.4,47,40,30,29.26,28.97,0,0,0,0.00
2013-3-18,31.3,19.3,12.2,18.9,6.7,-2.1,68,57,47,28.97,28.61,0,0,0,0.00
2013-3-19,26.8,15.0,5.9,0.2,-5.0,-13.6,53,41,31,29.12,28.73,0,0,0,0.00
2013-3-20,22.1,8.7,-7.1,-3.3,-13.9,-27.5,35,34,32,29.15,29.09,0,0,0,0.00
2013-3-21,30.9,6.8,-17.3,3.1,-16.0,-36.7,48,34,28,29.12,29.03,0,0,0,0.00
2013-3-22,41.9,15.8,-9.8,9.1,-8.7,-29.4,58,34,23,29.12,29.06,0,0,0,0.00
2013-3-23,44.0,23.7,3.9,13.0,2.3,-12.3,65,40,28,29.18,29.06,0,0,0,0.00
2013-3-24,33.1,28.1,22.1,13.6,10.1,6.1,57,47,37,29.12,28.94,0,0,0,0.00
2013-3-25,38.5,26.1,10.7,12.8,6.7,-0.8,67,44,30,29.21,29.00,0,0,0,0.00
2013-3-26,44.9,29.8,17.9,14.4,9.3,5.1,62,43,28,29.29,29.21,0,0,0,0.00
2013-3-27,48.9,33.3,18.3,15.4,8.6,0.3,54,37,21,29.35,29.29,0,0,0,0.00
2013-3-28,52.3,30.1,8.4,21.6,5.8,-3.3,69,39,20,29.38,29.29,0,0,0,0.00
2013-3-29,53.2,32.3,11.8,17.8,8.7,0.6,66,40,20,29.32,29.15,0,0,0,0.00
2013-3-30,41.2,35.6,26.8,36.7,24.5,13.0,84,66,40,29.15,28.85,0,0,0,0.00
2013-3-31,41.9,31.7,25.0,28.8,17.0,-0.1,89,60,26,29.03,28.79,0,0,0,0.00
2013-4-1,34.7,25.3,15.8,5.8,1.5,-3.0,48,36,29,29.23,29.03,0,0,0,0.00
2013-4-2,37.7,25.2,9.8,7.7,2.3,-6.3,55,37,28,29.35,29.23,0,0,0,0.00
2013-4-3,47.8,28.7,5.0,14.1,3.4,-10.0,60,36,19,29.44,29.15,0,0,0,0.00
2013-4-4,53.0,40.5,26.9,20.9,14.5,8.0,46,35,26,29.15,29.03,0,0,0,0.00
2013-4-5,46.0,31.8,15.2,27.9,11.1,4.9,84,46,24,29.26,29.03,0,0,0,0.00
2013-4-6,50.3,37.2,31.1,30.9,20.5,11.0,86,54,28,29.03,28.53,0,0,0,0.00
2013-4-7,46.0,36.4,31.6,30.3,24.2,16.1,84,63,37,29.00,28.73,0,0,0,0.00
2013-4-8,42.6,36.9,33.6,32.7,29.0,23.0,89,74,54,29.06,28.73,0,0,0,0.00
2013-4-9,38.3,35.7,31.3,33.5,27.9,15.7,89,75,44,29.15,29.00,0,0,0,0.00
2013-4-10,37.9,32.6,26.4,25.6,18.4,9.2,88,58,33,29.21,28.94,0,0,0,0.00
2013-4-11,35.4,31.8,27.7,27.6,19.7,7.7,85,63,33,28.94,28.70,0,0,0,0.00
2013-4-12,39.4,30.6,26.0,26.4,21.8,16.2,86,71,40,28.82,28.64,0,0,0,0.00
2013-4-13,40.3,29.7,21.5,23.1,16.5,9.8,79,59,35,29.03,28.82,0,0,0,0.00
2013-4-14,33.4,28.2,18.1,31.4,21.0,8.4,92,75,50,29.03,28.59,0,0,0,0.00
2013-4-15,42.2,35.6,29.6,34.6,20.9,14.1,93,59,35,28.97,28.61,0,0,0,0.00
2013-4-16,48.2,35.8,24.4,19.5,15.3,8.3,60,44,27,29.35,28.97,0,0,0,0.00
2013-4-17,39.2,33.2,23.0,30.0,17.7,10.6,87,54,43,29.35,28.88,0,0,0,0.00
2013-4-18,35.8,33.4,30.0,32.0,30.1,27.1,93,87,71,28.94,28.38,0,0,0,0.00
2013-4-19,36.5,30.0,21.7,27.5,17.0,8.1,91,61,35,28.97,28.35,0,0,0,0.00
2013-4-20,46.0,29.2,9.8,21.5,4.4,-3.2,74,39,19,29.35,28.97,0,0,0,0.00
2013-4-21,42.8,35.8,25.0,27.9,19.8,5.6,80,54,36,29.38,29.12,0,0,0,0.00
2013-4-22,42.8,42.8,42.8,22.4,22.4,22.4,44,44,44,29.21,29.03,0,0,0,0.00
2013-4-23,42.8,42.8,42.8,22.4,22.4,22.4,44,44,44,29.12,29.00,0,0,0,0.00
2013-4-24,42.8,42.8,42.8,22.4,22.4,22.4,44,44,44,29.06,28.97,0,0,0,0.00
2013-6-23,83.7,75.4,68.7,68.8,67.4,63.7,96,78,52,29.94,29.85,5,1,7,0.00
2013-6-24,82.6,72.3,61.9,73.7,67.8,61.3,98,86,70,29.97,29.85,6,1,6,0.00
2013-6-25,85.3,74.4,63.7,73.4,68.4,63.1,98,83,60,29.91,29.79,6,1,9,0.00
2013-6-26,87.4,73.9,66.0,76.9,71.3,65.4,98,93,61,29.82,29.74,6,1,9,0.29
2013-6-27,87.1,75.7,63.9,74.4,63.4,53.9,98,70,37,29.85,29.76,12,2,16,0.00
2013-6-28,78.3,67.9,59.5,69.8,62.2,55.2,96,82,61,29.82,29.71,8,2,12,0.50
2013-6-29,70.9,64.9,61.2,66.1,59.4,50.1,96,83,63,30.00,29.76,7,2,10,0.00
2013-6-30,82.4,65.8,46.9,56.7,50.9,46.1,98,64,33,30.15,29.97,8,2,8,0.00
2013-7-1,84.9,68.6,49.1,61.0,54.1,48.6,98,65,36,30.24,30.12,5,1,7,0.00
2013-7-2,81.7,67.3,51.3,59.3,54.3,49.5,98,67,37,30.21,30.06,6,1,7,0.00
2013-7-3,82.6,67.2,51.1,61.7,55.1,50.5,98,70,37,30.15,30.00,6,1,7,0.00
2013-7-4,87.4,73.9,57.6,64.1,60.4,55.7,96,66,40,30.06,29.94,8,1,11,0.50
2013-7-5,89.6,76.9,60.4,63.8,60.7,57.3,95,61,38,30.03,29.91,6,2,14,0.00
2013-7-6,91.6,79.2,63.0,70.0,65.5,60.2,94,65,45,30.00,29.91,8,2,12,0.50
2013-7-7,91.0,80.3,70.0,73.7,70.5,66.7,96,73,50,29.94,29.85,6,1,9,0.00
2013-7-8,88.7,76.9,68.2,74.2,71.1,67.3,98,84,54,30.03,29.85,5,1,6,0.00
2013-7-9,86.4,75.9,65.7,77.1,70.4,65.1,98,85,56,30.00,29.82,10,2,15,0.04
2013-7-10,80.2,71.2,57.4,70.0,57.9,52.0,93,66,41,30.09,29.85,15,2,15,0.00
2013-7-11,88.0,70.2,52.2,64.2,57.2,51.6,98,69,33,30.15,30.03,6,1,7,0.54
2013-7-12,87.1,73.3,59.0,65.2,60.5,58.2,98,68,41,30.15,30.00,8,2,11,0.00
2013-7-13,82.0,71.7,63.5,64.5,61.5,58.9,98,72,48,30.15,30.03,6,1,10,0.04
2013-7-14,89.6,77.2,64.0,67.2,64.6,62.6,96,69,43,30.24,30.15,4,1,8,0.00
2013-7-15,92.7,77.2,59.9,72.6,66.3,59.3,98,73,43,30.33,30.21,6,1,7,0.00
2013-7-16,96.3,82.6,68.7,76.6,71.3,68.1,98,73,41,30.27,30.21,6,1,10,0.00
2013-7-17,97.0,82.5,68.9,77.8,69.7,66.2,98,70,39,30.33,30.15,8,1,8,0.00
2013-7-18,96.8,84.3,69.3,75.7,70.1,66.9,98,66,40,30.18,29.82,9,2,12,0.58
2013-7-19,88.2,79.9,62.8,75.5,65.6,55.2,95,65,41,29.91,29.74,8,2,14,0.00
2013-7-20,83.5,70.9,58.3,65.7,57.4,52.3,98,66,39,30.00,29.88,6,1,8,0.00
2013-7-21,80.2,65.9,58.1,80.2,60.4,50.2,100,83,59,30.03,29.91,7,2,8,0.12
2013-7-22,86.5,71.8,60.6,79.3,66.7,56.2,98,85,65,29.91,29.68,10,2,10,0.00
2013-7-23,75.6,64.9,54.5,57.5,52.4,47.3,98,67,43,30.06,29.82,8,2,12,0.05
2013-7-24,77.2,62.0,45.5,57.4,50.6,44.3,98,70,41,30.12,30.03,4,1,10,0.00
2013-7-25,82.9,67.1,51.6,67.4,61.0,50.7,98,83,50,30.03,29.91,6,1,9,0.49
2013-7-26,73.8,64.6,53.4,66.7,57.7,50.6,98,80,49,30.06,29.91,10,2,12,0.00
2013-7-27,59.5,53.5,46.9,52.9,48.5,43.9,98,84,59,30.06,29.91,9,2,11,1.28
2013-7-28,69.1,57.1,47.7,55.6,51.5,47.1,98,83,54,30.09,29.91,9,2,9,0.00
2013-7-29,79.5,62.6,44.8,60.2,53.1,44.2,98,75,43,30.21,30.06,5,1,6,0.00
2013-7-30,76.1,66.5,57.2,66.6,62.3,55.8,97,87,65,30.18,30.06,4,0,5,0.56
2013-7-31,79.9,68.7,56.5,68.2,63.1,55.4,98,84,48,30.09,29.97,6,1,11,0.00
2013-8-1,81.1,65.2,49.3,60.0,54.5,48.7,98,73,40,30.06,29.91,6,1,9,1.33
2013-8-2,77.7,64.9,50.2,61.9,53.2,49.5,98,71,39,30.06,29.85,6,1,10,0.00
2013-8-3,78.1,62.5,45.3,59.5,49.3,44.5,98,67,36,30.21,30.03,7,1,10,0.00
2013-8-4,76.5,60.8,43.0,57.4,50.9,41.9,98,73,46,30.27,30.09,4,1,6,0.00
2013-8-5,73.4,63.9,51.1,68.1,61.4,49.7,98,92,80,30.09,29.85,7,1,8,0.00
2013-8-6,86.0,71.7,61.5,69.4,63.6,58.0,98,79,46,29.91,29.74,5,1,12,0.04
2013-8-7,77.5,64.9,51.6,64.6,56.0,47.8,98,77,40,30.06,29.79,6,1,8,0.00
2013-8-8,80.2,63.8,44.6,60.0,51.8,44.1,98,70,39,30.09,30.00,7,1,7,0.05
2013-8-9,78.4,66.5,52.2,62.8,53.6,47.1,98,67,39,30.12,30.00,9,2,10,0.04
2013-8-10,75.7,65.3,52.9,57.9,53.3,49.4,93,68,43,30.24,30.12,2,0,3,0.04
2013-8-11,80.1,65.4,52.3,64.9,59.1,50.7,98,83,50,30.15,30.03,0,0,0,0.05
2013-8-12,80.8,66.6,55.4,67.0,56.3,50.6,98,74,39,30.09,29.97,0,0,0,0.05
2013-8-13,76.3,60.0,43.0,55.3,47.2,42.4,98,68,37,30.24,30.09,0,0,0,0.00
2013-8-14,78.1,61.8,46.8,54.8,48.2,43.6,98,66,34,30.27,30.12,0,0,0,0.00
2013-8-15,81.9,64.6,50.0,58.7,50.7,47.3,97,66,33,30.21,30.09,0,0,0,0.00
2013-8-16,83.3,65.2,46.6,61.0,52.2,45.5,98,68,36,30.24,30.15,3,1,3,0.04
2013-8-17,82.4,60.8,47.3,62.5,52.4,46.5,98,79,39,30.27,30.21,3,3,3,0.00
2013-8-18,85.3,76.4,62.1,59.3,56.7,54.9,86,53,39,29.29,29.14,6,2,10,0.00
2013-8-19,87.3,70.8,55.2,67.2,62.0,53.7,98,76,47,29.17,29.06,8,1,10,0.00
2013-8-20,91.0,76.7,61.7,73.0,68.2,60.5,98,77,53,29.12,29.00,8,2,10,0.00
2013-8-21,89.2,75.9,65.1,74.7,69.9,64.5,98,83,60,29.12,29.00,172,2,172,0.00
2013-8-22,87.1,71.8,61.2,66.7,59.9,52.0,98,72,35,29.26,29.12,6,1,10,0.00
2013-8-23,87.6,69.3,49.5,64.3,57.9,47.8,96,70,41,29.29,29.17,6,1,10,0.00
2013-8-24,87.4,73.4,61.2,73.2,65.3,52.6,97,77,54,29.29,29.12,8,2,10,0.00
2013-8-25,96.8,84.2,74.5,76.0,73.3,70.7,88,71,47,29.20,29.09,9,2,13,0.00
2013-8-26,99.0,85.1,76.3,77.8,74.4,70.5,89,72,44,29.14,29.00,8,2,9,0.17
2013-8-27,97.2,83.6,70.9,79.7,74.4,70.0,97,76,47,29.06,28.88,8,1,8,0.00
2013-8-28,89.6,76.4,67.5,74.3,71.4,66.9,98,86,58,29.17,29.00,6,1,7,0.00
2013-8-29,94.6,79.6,66.4,76.9,72.9,65.8,98,82,52,29.17,29.00,10,1,10,0.00
2013-8-30,86.7,78.0,66.4,75.8,68.7,60.7,97,75,48,29.03,28.94,10,2,12,0.00
2013-8-31,88.9,72.3,56.3,68.0,63.3,55.8,98,77,44,29.03,28.88,5,1,7,0.00
2013-9-1,79.9,70.9,62.2,68.5,62.6,55.3,98,77,47,29.06,28.85,8,2,11,0.00
2013-9-2,71.8,60.6,45.3,55.1,50.4,43.0,92,71,45,29.17,29.03,7,2,8,0.00
2013-9-3,76.6,56.9,36.7,55.3,47.3,35.9,98,74,42,29.23,29.12,6,1,8,0.00
2013-9-4,84.6,65.6,46.4,65.1,56.6,45.6,98,76,48,29.29,29.12,6,1,6,0.00
2013-9-5,83.8,65.5,48.9,62.3,55.5,47.5,98,74,37,29.38,29.23,6,1,8,0.00
2013-9-6,92.1,73.4,57.9,67.5,62.5,55.0,98,72,40,29.29,29.00,7,1,8,0.00
2013-9-7,93.6,77.9,65.1,70.0,66.0,62.4,92,70,39,29.14,29.00,10,2,11,0.00
2013-9-8,80.1,69.9,60.8,65.7,58.7,50.4,89,69,44,29.23,29.03,7,2,10,0.00
2013-9-9,90.7,77.2,66.0,76.3,68.8,64.7,96,77,53,29.06,28.76,9,2,10,0.00
2013-9-10,87.3,75.8,67.3,71.8,66.3,61.2,96,74,45,29.09,28.85,5,1,8,0.00
2013-9-11,89.1,72.1,56.1,66.5,56.9,44.2,96,63,31,29.17,29.06,9,1,11,0.00
2013-9-12,72.1,61.0,50.7,56.5,49.4,41.8,95,68,40,29.32,29.09,10,2,12,0.00
2013-9-13,70.3,51.9,34.0,49.0,39.8,32.3,97,68,36,29.38,29.20,6,1,8,0.00
2013-9-14,76.6,55.6,34.5,55.6,44.0,33.0,98,71,36,29.23,29.03,7,1,8,0.00
2013-9-15,68.5,57.9,44.6,59.1,53.4,40.7,98,86,65,29.44,29.00,10,2,10,0.00
2013-9-16,68.4,48.8,33.3,44.5,38.5,32.5,98,72,36,29.53,29.38,6,1,9,0.00
2013-9-17,68.7,53.4,37.2,57.0,46.8,35.2,98,81,48,29.41,29.12,8,1,115,0.00
2013-9-18,73.0,65.4,57.4,69.3,63.8,56.8,98,95,86,29.12,28.88,6,1,8,0.00
2013-9-19,80.4,70.5,64.8,73.2,68.5,64.2,98,94,77,29.79,28.82,8,1,10,0.00
2013-9-20,66.6,61.1,53.1,64.5,55.7,47.6,98,83,59,29.91,29.76,6,0,6,0.00
2013-9-21,64.8,52.0,39.6,50.2,45.3,38.2,98,81,46,30.03,29.91,6,1,8,0.00
2013-9-22,69.1,53.7,35.2,47.9,43.7,34.7,98,72,45,30.06,29.97,6,1,10,0.00
2013-9-23,72.3,57.7,46.4,51.8,47.6,43.3,96,72,44,30.06,29.97,7,2,172,0.00
2013-9-24,75.6,58.2,43.9,54.8,48.6,43.3,98,75,41,30.06,29.97,8,1,229,0.00
2013-9-25,72.1,53.7,39.4,56.0,46.6,38.9,98,80,44,30.06,29.94,6,1,10,0.00
2013-9-26,78.1,63.1,44.1,57.8,53.2,43.3,98,73,48,30.06,29.97,7,2,229,0.00
2013-9-27,81.5,69.5,59.0,61.6,55.1,48.7,76,61,48,30.06,29.91,9,2,13,0.00
2013-9-28,74.1,60.3,48.6,64.5,53.7,46.9,98,81,50,30.00,29.74,7,2,16,0.13
2013-9-29,74.1,54.7,37.8,54.1,45.2,37.2,98,75,38,30.03,29.91,4,1,8,0.09
2013-9-30,75.2,62.3,48.4,52.2,48.3,44.1,89,62,39,29.91,29.74,12,2,12,0.09
2013-10-1,77.4,63.9,37.8,57.4,46.5,34.9,95,56,26,30.06,29.71,8,2,10,0.00
2013-10-2,77.4,55.7,33.8,54.3,40.7,26.8,98,64,30,30.15,29.09,2,0,2,0.30
2013-10-3,60.8,57.1,53.8,60.0,56.4,53.1,98,97,94,30.00,29.82,0,0,0,0.41
2013-10-4,59.7,57.4,55.9,59.2,56.8,55.4,98,98,96,30.03,29.91,4,0,4,0.91
2013-10-5,63.1,58.1,46.2,62.6,57.6,45.7,98,98,97,29.97,29.74,4,3,4,0.66
2013-10-6,58.3,47.8,37.6,49.8,43.1,37.1,98,86,52,29.82,29.71,3,3,3,1.57
2013-10-7,66.7,50.0,37.8,50.7,42.6,36.2,98,80,38,30.06,29.79,3,3,3,1.57
2013-10-8,75.0,57.3,36.1,49.6,43.7,35.0,98,66,37,30.06,29.94,3,0,3,0.00
2013-10-9,75.4,60.6,46.8,54.5,48.0,42.8,94,66,43,30.12,30.00,6,1,8,1.57
2013-10-10,73.8,54.2,38.1,52.2,45.1,37.6,98,76,42,30.15,29.97,6,1,7,0.00
2013-10-11,76.1,62.3,47.7,58.2,51.9,45.5,98,72,45,30.03,29.79,12,2,14,0.00
2013-10-12,68.9,56.9,42.8,55.8,43.9,35.9,82,62,47,30.18,29.79,7,2,12,0.00
2013-10-13,61.3,45.2,31.8,43.9,35.8,29.0,98,73,37,30.44,30.15,6,1,10,0.00
2013-10-14,57.4,45.1,28.4,42.6,34.7,26.6,98,70,46,30.44,30.06,9,2,13,0.00
2013-10-15,56.8,49.9,46.9,56.0,48.8,42.0,98,96,72,30.06,29.71,8,2,12,0.58
2013-10-16,48.0,43.5,30.2,47.5,41.8,29.5,98,94,81,29.97,29.76,6,1,8,0.54
2013-10-17,54.7,41.5,28.6,45.6,37.3,0.0,98,87,57,29.94,29.79,4,0,8,0.00
2013-10-18,51.4,41.8,29.3,45.9,36.9,27.2,98,85,47,29.97,29.79,10,2,10,0.00
2013-10-19,46.9,37.3,29.5,41.3,34.3,27.7,98,89,67,29.88,29.71,6,1,8,0.21
2013-10-20,43.7,33.0,26.4,41.2,32.3,25.7,98,97,87,29.82,29.68,5,1,6,0.04
2013-10-22,36.7,31.4,25.2,26.8,23.1,20.0,83,71,63,30.03,29.09,2,0,2,0.00
2013-10-23,38.5,31.8,22.5,32.7,25.6,19.1,97,79,55,30.06,29.97,0,0,0,0.04
2013-10-24,42.4,36.4,31.5,27.1,24.5,21.4,75,62,49,30.33,30.03,5,0,5,0.04
2013-10-25,54.0,43.3,31.5,36.2,30.2,25.1,90,62,46,30.33,29.76,17,2,17,0.04
2013-10-26,53.1,43.4,28.8,39.0,30.0,23.4,82,60,47,30.09,29.74,12,4,13,0.04
2013-10-27,61.2,40.9,24.6,34.7,28.2,21.6,98,64,35,30.12,29.79,6,4,11,0.04
2013-10-28,45.9,35.4,24.6,30.4,22.1,13.8,78,60,41,30.41,30.09,8,2,8,0.04
2013-10-29,42.6,35.7,24.3,36.3,27.6,16.6,87,72,65,30.41,30.09,6,2,9,0.00
2013-10-30,51.8,45.7,38.7,51.3,44.9,35.8,98,97,87,30.12,29.71,4,1,4,0.13
2013-10-31,52.0,46.9,39.4,51.4,46.4,38.9,98,98,98,29.71,29.41,6,1,10,0.04
2013-11-1,44.2,41.1,38.7,41.9,38.7,33.9,98,91,78,29.82,29.38,6,2,10,0.00
2013-11-2,46.0,36.9,25.3,35.6,31.9,23.4,95,83,57,30.12,29.79,5,1,6,0.04
2013-11-3,52.3,38.5,23.9,34.5,28.4,21.9,98,70,47,30.21,30.00,12,2,14,0.00
2013-11-4,46.4,42.4,30.2,44.6,37.1,29.7,98,83,56,30.18,29.91,8,2,12,0.29
2013-11-5,43.5,34.9,25.9,42.5,34.3,25.4,98,98,94,30.27,29.91,8,1,10,0.50
2013-11-6,42.1,33.9,25.9,34.2,27.5,20.3,98,79,47,30.15,29.91,10,2,13,0.12
2013-11-7,35.2,28.3,22.6,29.1,25.2,20.7,98,88,74,30.24,30.15,6,1,6,0.00
2013-11-8,44.6,31.5,16.3,37.3,25.2,13.9,98,79,54,30.24,29.65,8,2,11,0.04
2013-11-9,45.9,41.7,36.9,43.1,33.0,23.6,94,72,52,30.15,29.62,12,4,15,0.96
2013-11-10,47.5,39.7,34.2,29.5,26.4,22.6,67,59,46,30.33,30.09,10,2,10,0.00
2013-11-11,38.5,26.6,17.1,31.6,12.5,2.1,94,55,42,30.65,30.06,0,0,0,0.00
2013-11-12,28.6,18.2,11.1,10.6,5.3,0.0,69,57,45,30.74,30.47,6,1,7,0.00
2013-11-13,49.3,32.4,13.3,28.5,18.9,0.0,74,58,44,30.47,29.91,13,2,13,0.00
2013-11-14,42.8,35.5,26.2,32.5,26.8,0.0,92,71,59,29.91,29.79,4,1,6,0.00
2013-11-15,56.3,37.2,22.3,41.1,30.4,20.1,98,78,47,29.91,29.74,5,0,6,0.00
2013-11-16,53.8,45.6,41.5,52.9,42.1,33.5,98,88,70,29.76,29.32,7,2,12,0.00
2013-11-17,42.3,39.4,32.5,41.6,36.4,23.5,98,90,69,29.76,29.32,13,2,17,0.00
2013-11-18,32.7,27.2,15.3,25.0,17.3,10.8,84,66,58,30.27,29.74,13,3,15,0.00
2013-11-19,40.6,28.0,11.8,22.2,16.8,7.7,95,65,47,30.33,30.03,10,2,13,0.00
2013-11-20,41.2,36.7,32.7,32.8,26.6,0.0,100,71,46,30.09,29.97,8,2,10,0.00
2013-11-21,36.0,32.1,25.2,35.5,30.9,22.4,98,96,85,30.41,30.03,8,1,10,0.00
2013-11-22,32.4,23.2,16.5,22.4,13.6,4.4,92,68,44,30.53,30.39,8,2,13,0.96
2013-11-23,19.0,10.3,-0.6,4.6,-4.8,-16.0,56,50,44,30.74,30.50,9,2,12,0.00
2013-11-24,26.6,13.6,-4.0,9.8,-3.0,-19.1,57,47,41,30.65,30.03,12,2,12,0.00
2013-11-25,38.5,32.3,25.3,25.6,19.4,9.5,69,59,50,30.03,29.91,8,3,11,0.00
2013-11-26,32.2,20.6,11.3,20.0,5.0,-4.6,83,50,44,30.30,30.00,13,3,17,0.00
2013-11-27,27.7,16.7,3.6,10.9,1.4,-11.7,67,50,47,30.33,30.09,4,1,6,0.00
2013-11-28,29.3,22.0,8.1,13.0,7.8,-3.3,59,54,48,30.50,30.03,7,1,9,0.00
2013-11-29,30.9,19.1,1.9,17.0,7.1,-9.1,81,59,52,30.53,30.21,6,1,8,0.00
2013-11-30,41.7,30.9,21.6,25.9,21.2,15.2,82,68,52,30.21,30.00,5,0,5,0.00
2013-12-1,38.1,24.2,13.6,26.6,18.9,10.0,91,81,57,30.21,29.94,3,0,3,0.00
2013-12-2,36.0,28.0,14.5,32.8,25.6,10.9,98,91,78,29.94,29.68,0,0,0,0.00
2013-12-3,34.0,32.7,29.8,33.5,32.2,29.3,98,98,98,29.82,29.65,0,0,0,0.96
2013-12-4,34.2,31.0,23.2,33.7,30.0,18.2,98,96,81,29.82,29.44,0,0,0,0.00
2013-12-5,22.8,9.2,1.8,17.9,2.7,-4.6,81,74,70,30.30,29.62,9,2,13,0.96
2013-12-6,8.4,0.7,-3.8,1.9,-5.6,-10.0,74,74,74,30.56,30.27,7,2,9,0.00
2013-12-7,5.5,-4.3,-11.0,-0.9,-10.5,-17.0,74,74,74,30.68,30.53,6,1,7,0.00
2013-12-8,11.1,5.7,-6.0,4.5,-0.8,-12.1,74,74,74,30.53,29.97,5,1,7,0.00
2013-12-9,9.3,0.7,-11.7,2.7,-5.7,-17.7,74,74,74,30.09,29.91,8,1,12,0.00
2013-12-10,10.2,3.9,-6.9,3.6,-2.5,-13.0,74,74,74,30.18,29.76,10,2,13,0.00
2013-12-11,8.2,-4.5,-13.4,1.7,-10.7,-19.3,74,74,74,30.50,30.18,7,2,9,0.00
2013-12-12,19.6,8.4,-4.4,9.9,-0.0,-10.5,74,68,53,30.39,30.09,7,1,9,0.00
2013-12-13,18.0,14.1,10.8,10.5,3.6,-0.7,76,63,55,30.24,30.09,7,3,10,0.00
2013-12-14,19.2,12.1,6.4,11.4,3.5,-1.4,78,68,59,30.27,29.97,6,2,6,0.00
2013-12-15,6.3,-1.9,-13.2,0.3,-7.6,-18.6,76,76,76,30.15,29.97,6,2,9,0.96
2013-12-16,14.2,4.2,-11.0,10.2,-1.5,-16.5,84,77,76,30.12,29.91,4,0,5,0.00
2013-12-17,31.1,22.4,1.9,26.6,13.6,-9.8,97,70,55,30.06,29.82,11,3,15,0.00
2013-12-18,31.1,13.9,-2.9,16.4,3.7,-14.4,81,64,53,30.09,29.68,6,1,6,0.96
2013-12-19,24.1,17.9,9.3,13.5,10.0,4.7,91,72,59,30.06,29.76,7,2,10,0.00
2013-12-20,21.6,18.2,15.3,14.4,11.2,9.0,82,74,63,30.00,29.82,7,2,10,0.96
2013-12-21,26.4,21.7,19.0,17.4,15.0,13.5,87,75,62,29.97,29.82,6,1,7,0.00
2013-12-22,27.0,22.0,14.5,21.0,16.8,10.9,90,80,70,30.12,29.85,5,2,7,0.00
2013-12-23,14.2,3.8,-10.1,10.2,0.0,-13.6,84,84,84,30.41,30.12,8,2,10,0.00
2013-12-24,11.5,-1.5,-17.7,7.6,-5.1,-21.0,84,84,84,30.44,30.15,8,1,9,0.00
2013-12-25,19.9,13.8,7.9,16.7,9.0,4.1,87,81,73,30.18,30.03,115,1,115,0.00
2013-12-26,25.3,17.6,10.6,17.0,10.9,3.9,86,75,64,30.18,30.09,4,0,4,0.96
2013-12-27,38.1,21.1,1.0,29.7,16.5,-2.9,94,83,65,30.21,29.88,6,1,10,0.00
2013-12-28,45.7,27.4,14.5,33.5,23.0,12.1,98,85,53,30.00,29.68,10,1,10,0.00
2013-12-29,27.7,3.5,-22.0,22.9,-5.0,-30.0,84,67,64,30.27,29.85,15,3,17,0.00
2013-12-30,-0.4,-11.3,-26.7,-9.3,-19.8,-34.5,65,65,65,30.30,30.15,4,0,6,0.00
2013-12-31,0.7,-7.4,-22.0,-8.3,-16.0,-30.0,65,65,65,30.39,30.15,5,1,8,0.96
2014-1-1,5.9,-2.0,-22.0,-3.3,-10.9,-30.0,65,65,65,30.47,30.36,5,1,7,0.96
2014-1-2,8.6,-3.6,-21.6,-0.7,-12.4,-29.7,65,65,65,30.44,30.33,4,1,6,0.00